Regional Weather Roundup
Issued by NWS

Home | Current Version | Previous Version | Text Only | Print | Product List | Glossary Off
Versions: 1 2 3 4 5 6 7 8 9 10 11 12 13 14 15 16 17 18 19 20 21 22 23 24 25 26 27 28 29 30 31 32 33 34 35 36 37 38 39 40 41 42 43 44 45 46 47 48 49

000
ASUS45 KCYS 051910
RWRWY

WYOMING REGIONAL WEATHER ROUNDUP
NATIONAL WEATHER SERVICE CHEYENNE WY
1200 PM MST FRI FEB 05 2016

NOTE:  "FAIR" INDICATES FEW OR NO CLOUDS BELOW 12,000 FEET
WITH NO SIGNIFICANT WEATHER AND/OR OBSTRUCTIONS TO VISIBILITY.

WYZ001-052000-
YELLOWSTONE NATIONAL PARK

CITY           SKY/WX    TMP DP  RH WIND       PRES   REMARKS
LK YELLOWSTONE   N/A     18  11  74 CALM      30.37F
W YELLOWSTONE  NOT AVBL

$$
WYZ002>013-054>058-071-098>099-052000-
NORTHERN WYOMING

CITY           SKY/WX    TMP DP  RH WIND       PRES   REMARKS
JACKSON        SUNNY     16  10  79 CALM      30.43F
CODY           FAIR      39  12  33 W9G17     30.23F WCI  33
GREYBULL       FAIR      31  13  47 SE6       30.31F WCI  25
WORLAND        FAIR      28  14  55 NW3       30.31F
SHERIDAN       MOSUNNY   37  14  38 S6        30.22F WCI  33
BUFFALO        FAIR      34  14  43 S16G22    30.23F WCI  24
GILLETTE       FAIR      34  19  54 W12       30.23F WCI  25
HULETT         FAIR      34  21  60 W10       30.22F WCI  26
NEWCASTLE      FAIR      34  21  60 NW17G24   30.25R WCI  23

$$
WYZ014>020-022>026-101>103-052000-
CENTRAL WYOMING

CITY           SKY/WX    TMP DP  RH WIND       PRES   REMARKS
BIG PINEY      FAIR      28  11  48 VRB5      30.38F WCI  23
PINEDALE       FAIR      25  14  63 W17       30.36F WCI  11
DUBOIS         FAIR      30  10  43 NW20G30   30.26F WCI  18
LANDER         FAIR      30  10  43 CALM      30.28F
RIVERTON       FAIR      25  10  53 SE5       30.30F WCI  19
CASPER         FAIR      22  11  62 SW21      30.30F WCI   6
DOUGLAS        FAIR      28  15  58 NW12      30.30F WCI  18

$$
WYZ021-027>030-104>119-052000-
SOUTHERN WYOMING

CITY           SKY/WX    TMP DP  RH WIND       PRES   REMARKS
EVANSTON       PTSUNNY   24  17  74 SW10      30.45F WCI  14
FORT BRIDGER   PTCLDY    27  19  74 W16       30.46F WCI  14
ROCK SPRINGS   FAIR      23  15  71 W21       30.39F WCI   8
DIXON          FLURRIES  19  12  73 CALM      30.47F
RAWLINS        FAIR      19  10  68 W22       30.35F WCI   2
SARATOGA       FAIR      23  14  68 SW20      30.35F WCI   8
LARAMIE        FAIR      23  10  57 W14       30.25F WCI  11
CHEYENNE       FAIR      27  10  49 NW20G28   30.26F WCI  13
TORRINGTON     FAIR      35  18  49 W14       30.28F WCI  26
PINE BLUFFS    FAIR      30  18  59 NW21G29   30.28F WCI  17

$$



USA.gov is the U.S. government's official web portal to all federal, state and local government web resources and services.